,,,PA_Meas_PMT16A,,PR_Meas_QMR101_102,,RH_Meas_QMH101,,SR_Meas_QMS101,,TA_Meas_QMH101,,GenWind,,GenWind,
date,time,status,PA,status,PR,status,RH,status,SR,status,TA,status,DirAvg,status,SpdAvg,
2011-09-24, 00:00:04,VALID,1004.4,VALID,0,INVALID,163.754,VALID,0.100563,VALID,23.8556,VALID,78,VALID,0,
2011-09-24, 00:01:04,VALID,1004.41,VALID,0,INVALID,163.754,VALID,0,VALID,23.8575,VALID,78,VALID,0,
2011-09-24, 00:02:04,VALID,1004.42,VALID,0,INVALID,163.739,VALID,0,VALID,23.838,VALID,78,VALID,0,
2011-09-24, 00:03:04,VALID,1004.42,VALID,0,INVALID,163.769,VALID,0,VALID,23.838,VALID,78,VALID,0,
2011-09-24, 00:04:04,VALID,1004.41,VALID,0,INVALID,163.762,VALID,0,VALID,23.8362,VALID,78,VALID,0,
2011-09-24, 00:05:04,VALID,1004.45,VALID,0,INVALID,163.777,VALID,0.100563,VALID,23.8769,VALID,78,VALID,0,
2011-09-24, 00:06:04,VALID,1004.43,VALID,0,INVALID,163.769,VALID,0,VALID,23.8769,VALID,78,VALID,0,
2011-09-24, 00:07:04,VALID,1004.44,VALID,0,INVALID,163.723,VALID,0,VALID,23.8964,VALID,78,VALID,0,
2011-09-24, 00:08:04,VALID,1004.41,VALID,0,INVALID,163.769,VALID,0.100563,VALID,23.8964,VALID,78,VALID,0,
2011-09-24, 00:09:04,VALID,1004.37,VALID,0,INVALID,163.754,VALID,0.100563,VALID,23.9159,VALID,78,VALID,0,
2011-09-24, 00:10:04,VALID,1004.39,VALID,0,INVALID,163.777,VALID,0,VALID,23.8964,VALID,78,VALID,0,
2011-09-24, 00:11:04,VALID,1004.35,VALID,0,INVALID,163.754,VALID,0,VALID,23.8769,VALID,78,VALID,0,
2011-09-24, 00:12:04,VALID,1004.34,VALID,0,INVALID,163.754,VALID,0.100563,VALID,23.8964,VALID,78,VALID,0,
2011-09-24, 00:13:04,VALID,1004.34,VALID,0,INVALID,163.762,VALID,0,VALID,23.8964,VALID,78,VALID,0,
2011-09-24, 00:14:04,VALID,1004.33,VALID,0,INVALID,163.754,VALID,0,VALID,23.8964,VALID,78,VALID,0,
2011-09-24, 00:15:04,VALID,1004.3,VALID,0,INVALID,163.739,VALID,0,VALID,23.8769,VALID,78,VALID,0,
2011-09-24, 00:16:04,VALID,1004.29,VALID,0,INVALID,163.746,VALID,0.100563,VALID,23.8556,VALID,78,VALID,0,
2011-09-24, 00:17:04,VALID,1004.27,VALID,0,INVALID,163.754,VALID,0.100563,VALID,23.8362,VALID,78,VALID,0,
2011-09-24, 00:18:04,VALID,1004.26,VALID,0,INVALID,163.754,VALID,0.100563,VALID,23.8167,VALID,78,VALID,0,
2011-09-24, 00:19:04,VALID,1004.24,VALID,0,INVALID,163.754,VALID,0.100563,VALID,23.838,VALID,78,VALID,0,
2011-09-24, 00:20:04,VALID,1004.22,VALID,0,INVALID,163.739,VALID,0.100563,VALID,23.8167,VALID,78,VALID,0,
2011-09-24, 00:21:04,VALID,1004.23,VALID,0,INVALID,163.762,VALID,0,VALID,23.838,VALID,78,VALID,0,
2011-09-24, 00:22:04,VALID,1004.2,VALID,0,INVALID,163.784,VALID,0.100563,VALID,23.838,VALID,78,VALID,0,
2011-09-24, 00:23:04,VALID,1004.2,VALID,0,INVALID,163.769,VALID,0.100563,VALID,23.838,VALID,78,VALID,0,
2011-09-24, 00:24:04,VALID,1004.18,VALID,0,INVALID,163.762,VALID,0.100563,VALID,23.838,VALID,78,VALID,0,
2011-09-24, 00:25:04,VALID,1004.17,VALID,0,INVALID,163.762,VALID,0.100563,VALID,23.8167,VALID,78,VALID,0,
2011-09-24, 00:26:04,VALID,1004.14,VALID,0,INVALID,163.762,VALID,0.100563,VALID,23.7991,VALID,78,VALID,0,
2011-09-24, 00:27:04,VALID,1004.15,VALID,0,INVALID,163.784,VALID,0,VALID,23.8185,VALID,78,VALID,0,
2011-09-24, 00:28:04,VALID,1004.11,VALID,0,INVALID,163.754,VALID,0.100563,VALID,23.7778,VALID,78,VALID,0,
2011-09-24, 00:29:04,VALID,1004.11,VALID,0,INVALID,163.792,VALID,0,VALID,23.7991,VALID,78,VALID,0,
2011-09-24, 00:30:04,VALID,1004.12,VALID,0,INVALID,163.792,VALID,0,VALID,23.7796,VALID,78,VALID,0,
2011-09-24, 00:31:04,VALID,1004.09,VALID,0,INVALID,163.754,VALID,0.100563,VALID,23.7583,VALID,78,VALID,0,
2011-09-24, 00:32:04,VALID,1004.11,VALID,0,INVALID,163.769,VALID,0.100563,VALID,23.7583,VALID,78,VALID,0,
2011-09-24, 00:33:04,VALID,1004.1,VALID,0,INVALID,163.769,VALID,0,VALID,23.7796,VALID,78,VALID,0,
2011-09-24, 00:34:04,VALID,1004.09,VALID,0,INVALID,163.762,VALID,0.100563,VALID,23.7389,VALID,78,VALID,0,
2011-09-24, 00:35:04,VALID,1004.09,VALID,0,INVALID,163.754,VALID,0,VALID,23.7389,VALID,78,VALID,0,
2011-09-24, 00:36:04,VALID,1004.05,VALID,0,INVALID,163.777,VALID,0,VALID,23.7407,VALID,78,VALID,0,
2011-09-24, 00:37:04,VALID,1004,VALID,0,INVALID,163.8,VALID,0.100563,VALID,23.7,VALID,78,VALID,0,
2011-09-24, 00:38:04,VALID,1003.99,VALID,0,INVALID,163.784,VALID,0.100563,VALID,23.6805,VALID,78,VALID,0,
2011-09-24, 00:39:04,VALID,1003.93,VALID,0,INVALID,163.769,VALID,0.100563,VALID,23.6805,VALID,78,VALID,0,
2011-09-24, 00:40:04,VALID,1003.91,VALID,0,INVALID,163.769,VALID,0,VALID,23.6823,VALID,78,VALID,0,
2011-09-24, 00:41:04,VALID,1003.93,VALID,0,INVALID,163.784,VALID,0,VALID,23.661,VALID,78,VALID,0,
2011-09-24, 00:42:04,VALID,1003.9,VALID,0,INVALID,163.792,VALID,0,VALID,23.6628,VALID,78,VALID,0,
2011-09-24, 00:43:04,VALID,1003.85,VALID,0,INVALID,163.807,VALID,0.100563,VALID,23.6628,VALID,78,VALID,0,
2011-09-24, 00:44:04,VALID,1003.84,VALID,0,INVALID,163.807,VALID,0,VALID,23.6823,VALID,78,VALID,0,
2011-09-24, 00:45:04,VALID,1003.84,VALID,0,INVALID,163.777,VALID,0,VALID,23.7017,VALID,78,VALID,0,
2011-09-24, 00:46:04,VALID,1003.84,VALID,0,INVALID,163.784,VALID,0,VALID,23.723,VALID,78,VALID,0,
2011-09-24, 00:47:04,VALID,1003.84,VALID,0,INVALID,163.769,VALID,0,VALID,23.723,VALID,78,VALID,0,
2011-09-24, 00:48:04,VALID,1003.82,VALID,0,INVALID,163.777,VALID,0,VALID,23.7035,VALID,78,VALID,0,
2011-09-24, 00:49:04,VALID,1003.84,VALID,0,INVALID,163.792,VALID,0,VALID,23.7017,VALID,78,VALID,0,
2011-09-24, 00:50:04,VALID,1003.85,VALID,0,INVALID,163.754,VALID,0,VALID,23.7035,VALID,78,VALID,0,
2011-09-24, 00:51:04,VALID,1003.86,VALID,0,INVALID,163.792,VALID,0,VALID,23.7035,VALID,78,VALID,0,
2011-09-24, 00:52:04,VALID,1003.86,VALID,0,INVALID,163.777,VALID,0,VALID,23.6823,VALID,78,VALID,0,
2011-09-24, 00:53:04,VALID,1003.83,VALID,0,INVALID,163.762,VALID,0,VALID,23.7035,VALID,78,VALID,0,
2011-09-24, 00:54:04,VALID,1003.83,VALID,0,INVALID,163.807,VALID,0,VALID,23.7212,VALID,85,VALID,0,
2011-09-24, 00:55:04,VALID,1003.84,VALID,0,INVALID,163.792,VALID,0,VALID,23.7425,VALID,42,VALID,0,
2011-09-24, 00:56:04,VALID,1003.83,VALID,0,INVALID,163.815,VALID,0,VALID,23.7425,VALID,67,VALID,0,
2011-09-24, 00:57:04,VALID,1003.82,VALID,0,INVALID,163.784,VALID,0,VALID,23.7407,VALID,77,VALID,0,
2011-09-24, 00:58:04,VALID,1003.84,VALID,0,INVALID,163.784,VALID,0,VALID,23.7814,VALID,45,VALID,0,
2011-09-24, 00:59:04,VALID,1003.83,VALID,0,INVALID,163.777,VALID,0,VALID,23.7814,VALID,33,VALID,0,
2011-09-24, 01:00:04,VALID,1003.79,VALID,0,INVALID,163.777,VALID,0,VALID,23.8185,VALID,33,VALID,0,
2011-09-24, 01:01:04,VALID,1003.79,VALID,0,INVALID,163.754,VALID,0,VALID,23.8575,VALID,33,VALID,0,
2011-09-24, 01:02:04,VALID,1003.77,VALID,0,INVALID,163.746,VALID,0,VALID,23.8964,VALID,32,VALID,0,
2011-09-24, 01:03:04,VALID,1003.77,VALID,0,INVALID,163.731,VALID,0,VALID,23.9371,VALID,32,VALID,0,
2011-09-24, 01:04:04,VALID,1003.75,VALID,0,INVALID,163.746,VALID,0,VALID,23.9761,VALID,32,VALID,0,
2011-09-24, 01:05:04,VALID,1003.77,VALID,0,INVALID,163.731,VALID,0,VALID,23.9955,VALID,32,VALID,0,
2011-09-24, 01:06:04,VALID,1003.76,VALID,0,INVALID,163.754,VALID,0,VALID,23.9761,VALID,32,VALID,0,
2011-09-24, 01:07:04,VALID,1003.74,VALID,0,INVALID,163.746,VALID,0,VALID,23.9761,VALID,32,VALID,0,
2011-09-24, 01:08:04,VALID,1003.75,VALID,0,INVALID,163.777,VALID,0,VALID,23.9761,VALID,32,VALID,0,
2011-09-24, 01:09:04,VALID,1003.73,VALID,0,INVALID,163.746,VALID,0,VALID,24.0363,VALID,72,VALID,0,
2011-09-24, 01:10:04,VALID,1003.73,VALID,0,INVALID,163.739,VALID,0,VALID,24.015,VALID,57,VALID,0,
2011-09-24, 01:11:04,VALID,1003.67,VALID,0,INVALID,163.754,VALID,0,VALID,24.015,VALID,57,VALID,0,
2011-09-24, 01:12:04,VALID,1003.68,VALID,0,INVALID,163.723,VALID,0,VALID,23.9955,VALID,57,VALID,0,
2011-09-24, 01:13:04,VALID,1003.69,VALID,0,INVALID,163.746,VALID,0,VALID,23.9761,VALID,57,VALID,0,
2011-09-24, 01:14:04,VALID,1003.63,VALID,0,INVALID,163.746,VALID,0,VALID,23.9761,VALID,57,VALID,0,
2011-09-24, 01:15:04,VALID,1003.65,VALID,0,INVALID,163.739,VALID,0,VALID,23.9353,VALID,57,VALID,0,
2011-09-24, 01:16:04,VALID,1003.64,VALID,0,INVALID,163.762,VALID,0,VALID,23.9159,VALID,57,VALID,0,
2011-09-24, 01:17:04,VALID,1003.63,VALID,0,INVALID,163.762,VALID,0,VALID,23.8946,VALID,57,VALID,0,
2011-09-24, 01:18:04,VALID,1003.61,VALID,0,INVALID,163.754,VALID,0.100563,VALID,23.9159,VALID,57,VALID,0,
2011-09-24, 01:19:04,VALID,1003.61,VALID,0,INVALID,163.777,VALID,0.100563,VALID,23.8946,VALID,57,VALID,0,
2011-09-24, 01:20:04,VALID,1003.6,VALID,0,INVALID,163.754,VALID,0.100563,VALID,23.8964,VALID,57,VALID,0,
2011-09-24, 01:21:04,VALID,1003.6,VALID,0,INVALID,163.769,VALID,0,VALID,23.8751,VALID,57,VALID,0,
2011-09-24, 01:22:04,VALID,1003.56,VALID,0,INVALID,163.769,VALID,0,VALID,23.8556,VALID,57,VALID,0,
2011-09-24, 01:23:04,VALID,1003.55,VALID,0,INVALID,163.762,VALID,0,VALID,23.8751,VALID,57,VALID,0,
2011-09-24, 01:24:04,VALID,1003.52,VALID,0,INVALID,163.739,VALID,0.100563,VALID,23.8751,VALID,57,VALID,0,
2011-09-24, 01:25:04,VALID,1003.52,VALID,0,INVALID,163.792,VALID,0.100563,VALID,23.8751,VALID,57,VALID,0,
2011-09-24, 01:26:04,VALID,1003.49,VALID,0,INVALID,163.746,VALID,0,VALID,23.8964,VALID,57,VALID,0,
2011-09-24, 01:27:04,VALID,1003.5,VALID,0,INVALID,163.739,VALID,0.100563,VALID,23.9353,VALID,57,VALID,0,
2011-09-24, 01:28:04,VALID,1003.5,VALID,0,INVALID,163.777,VALID,0,VALID,23.9335,VALID,57,VALID,0,
2011-09-24, 01:29:04,VALID,1003.48,VALID,0,INVALID,163.777,VALID,0.100563,VALID,23.9742,VALID,57,VALID,0,
2011-09-24, 01:30:04,VALID,1003.48,VALID,0,INVALID,163.762,VALID,0.100563,VALID,23.9548,VALID,57,VALID,0,
2011-09-24, 01:31:04,VALID,1003.46,VALID,0,INVALID,163.762,VALID,0,VALID,23.9548,VALID,57,VALID,0,
2011-09-24, 01:32:04,VALID,1003.43,VALID,0,INVALID,163.777,VALID,0.100563,VALID,23.9548,VALID,57,VALID,0,
2011-09-24, 01:33:04,VALID,1003.41,VALID,0,INVALID,163.754,VALID,0.100563,VALID,23.9548,VALID,57,VALID,0,
2011-09-24, 01:34:04,VALID,1003.42,VALID,0,INVALID,163.754,VALID,0.100563,VALID,23.953,VALID,57,VALID,0,
2011-09-24, 01:35:04,VALID,1003.36,VALID,0,INVALID,163.784,VALID,0.100563,VALID,23.9335,VALID,57,VALID,0,
2011-09-24, 01:36:04,VALID,1003.37,VALID,0,INVALID,163.754,VALID,0,VALID,23.9353,VALID,57,VALID,0,
2011-09-24, 01:37:04,VALID,1003.36,VALID,0,INVALID,163.746,VALID,0,VALID,23.8946,VALID,57,VALID,0,
2011-09-24, 01:38:04,VALID,1003.35,VALID,0,INVALID,163.769,VALID,0.100563,VALID,23.8556,VALID,57,VALID,0,
2011-09-24, 01:39:04,VALID,1003.33,VALID,0,INVALID,163.769,VALID,0,VALID,23.8769,VALID,57,VALID,0,
2011-09-24, 01:40:04,VALID,1003.32,VALID,0,INVALID,163.769,VALID,0,VALID,23.838,VALID,57,VALID,0,
2011-09-24, 01:41:04,VALID,1003.28,VALID,0,INVALID,163.762,VALID,0.100563,VALID,23.8185,VALID,57,VALID,0,
2011-09-24, 01:42:04,VALID,1003.29,VALID,0,INVALID,163.784,VALID,0,VALID,23.7991,VALID,57,VALID,0,
2011-09-24, 01:43:04,VALID,1003.27,VALID,0,INVALID,163.746,VALID,0.100563,VALID,23.7991,VALID,57,VALID,0,
2011-09-24, 01:44:04,VALID,1003.26,VALID,0,INVALID,163.762,VALID,0,VALID,23.7389,VALID,57,VALID,0,
2011-09-24, 01:45:04,VALID,1003.28,VALID,0,INVALID,163.784,VALID,0,VALID,23.7389,VALID,57,VALID,0,
2011-09-24, 01:46:04,VALID,1003.26,VALID,0,INVALID,163.777,VALID,0,VALID,23.7796,VALID,57,VALID,0,
2011-09-24, 01:47:04,VALID,1003.26,VALID,0,INVALID,163.769,VALID,0.100563,VALID,23.7389,VALID,57,VALID,0,
2011-09-24, 01:48:04,VALID,1003.26,VALID,0,INVALID,163.8,VALID,0.100563,VALID,23.7407,VALID,57,VALID,0,
2011-09-24, 01:49:04,VALID,1003.25,VALID,0,INVALID,163.762,VALID,0.100563,VALID,23.7212,VALID,59,VALID,0,
2011-09-24, 01:50:04,VALID,1003.27,VALID,0,INVALID,163.777,VALID,0.100563,VALID,23.7017,VALID,61,VALID,0,
2011-09-24, 01:51:04,VALID,1003.27,VALID,0,INVALID,163.807,VALID,0.100563,VALID,23.6823,VALID,61,VALID,0,
2011-09-24, 01:52:04,VALID,1003.29,VALID,0,INVALID,163.792,VALID,0,VALID,23.6628,VALID,61,VALID,0,
2011-09-24, 01:53:04,VALID,1003.29,VALID,0,INVALID,163.807,VALID,0.100563,VALID,23.6628,VALID,61,VALID,0,
2011-09-24, 01:54:04,VALID,1003.28,VALID,0,INVALID,163.784,VALID,0.100563,VALID,23.6221,VALID,61,VALID,0,
2011-09-24, 01:55:04,VALID,1003.3,VALID,0,INVALID,163.807,VALID,0.100563,VALID,23.6026,VALID,61,VALID,0,
2011-09-24, 01:56:04,VALID,1003.35,VALID,0,INVALID,163.777,VALID,0.100563,VALID,23.6026,VALID,61,VALID,0,
2011-09-24, 01:57:04,VALID,1003.35,VALID,0,INVALID,163.762,VALID,0.100563,VALID,23.6044,VALID,61,VALID,0,
2011-09-24, 01:58:04,VALID,1003.35,VALID,0,INVALID,163.792,VALID,0,VALID,23.6044,VALID,61,VALID,0,
2011-09-24, 01:59:04,VALID,1003.34,VALID,0,INVALID,163.784,VALID,0.100563,VALID,23.585,VALID,61,VALID,0,
2011-09-24, 02:00:04,VALID,1003.39,VALID,0,INVALID,163.777,VALID,0,VALID,23.585,VALID,61,VALID,0,
2011-09-24, 02:01:04,VALID,1003.41,VALID,0,INVALID,163.8,VALID,0,VALID,23.5637,VALID,61,VALID,0,
2011-09-24, 02:02:04,VALID,1003.43,VALID,0,INVALID,163.784,VALID,0,VALID,23.585,VALID,61,VALID,0,
2011-09-24, 02:03:04,VALID,1003.41,VALID,0,INVALID,163.815,VALID,0,VALID,23.5832,VALID,61,VALID,0,
2011-09-24, 02:04:04,VALID,1003.42,VALID,0,INVALID,163.762,VALID,0.100563,VALID,23.6239,VALID,61,VALID,0,
2011-09-24, 02:05:04,VALID,1003.46,VALID,0,INVALID,163.762,VALID,0,VALID,23.5832,VALID,61,VALID,0,
2011-09-24, 02:06:04,VALID,1003.45,VALID,0,INVALID,163.792,VALID,0,VALID,23.6044,VALID,60,VALID,0,
2011-09-24, 02:07:04,VALID,1003.46,VALID,0,INVALID,163.784,VALID,0.100563,VALID,23.6026,VALID,60,VALID,0,
2011-09-24, 02:08:04,VALID,1003.48,VALID,0,INVALID,163.762,VALID,0.100563,VALID,23.6239,VALID,60,VALID,0,
2011-09-24, 02:09:04,VALID,1003.46,VALID,0,INVALID,163.762,VALID,0.100563,VALID,23.6434,VALID,59,VALID,0,
2011-09-24, 02:10:04,VALID,1003.48,VALID,0,INVALID,163.807,VALID,0.100563,VALID,23.6221,VALID,59,VALID,0,
2011-09-24, 02:11:04,VALID,1003.46,VALID,0,INVALID,163.792,VALID,0,VALID,23.6239,VALID,59,VALID,0,
2011-09-24, 02:12:04,VALID,1003.5,VALID,0,INVALID,163.8,VALID,0,VALID,23.6044,VALID,59,VALID,0,
2011-09-24, 02:13:04,VALID,1003.5,VALID,0,INVALID,163.754,VALID,0.100563,VALID,23.6026,VALID,59,VALID,0,
2011-09-24, 02:14:04,VALID,1003.47,VALID,0,INVALID,163.784,VALID,0,VALID,23.6044,VALID,59,VALID,0,
2011-09-24, 02:15:04,VALID,1003.48,VALID,0,INVALID,163.8,VALID,0.100563,VALID,23.6239,VALID,59,VALID,0,
2011-09-24, 02:16:04,VALID,1003.5,VALID,0,INVALID,163.769,VALID,0,VALID,23.6239,VALID,59,VALID,0,
2011-09-24, 02:17:04,VALID,1003.52,VALID,0,INVALID,163.769,VALID,0,VALID,23.6044,VALID,59,VALID,0,
2011-09-24, 02:18:04,VALID,1003.51,VALID,0,INVALID,163.762,VALID,0,VALID,23.6452,VALID,59,VALID,0,
2011-09-24, 02:19:04,VALID,1003.48,VALID,0,INVALID,163.784,VALID,0,VALID,23.6452,VALID,59,VALID,0,
2011-09-24, 02:20:04,VALID,1003.49,VALID,0,INVALID,163.769,VALID,0,VALID,23.6452,VALID,59,VALID,0,
2011-09-24, 02:21:04,VALID,1003.52,VALID,0,INVALID,163.746,VALID,0,VALID,23.6452,VALID,59,VALID,0,
2011-09-24, 02:22:04,VALID,1003.48,VALID,0,INVALID,163.792,VALID,0,VALID,23.6257,VALID,59,VALID,0,
2011-09-24, 02:23:04,VALID,1003.5,VALID,0,INVALID,163.754,VALID,0,VALID,23.6044,VALID,58,VALID,0,
2011-09-24, 02:24:04,VALID,1003.47,VALID,0,INVALID,163.769,VALID,0,VALID,23.6062,VALID,58,VALID,0,
2011-09-24, 02:25:04,VALID,1003.48,VALID,0,INVALID,163.8,VALID,0,VALID,23.5868,VALID,58,VALID,0,
2011-09-24, 02:26:04,VALID,1003.48,VALID,0,INVALID,163.769,VALID,0,VALID,23.5655,VALID,58,VALID,0,
2011-09-24, 02:27:04,VALID,1003.46,VALID,0,INVALID,163.777,VALID,0,VALID,23.546,VALID,58,VALID,0,
2011-09-24, 02:28:04,VALID,1003.44,VALID,0,INVALID,163.769,VALID,0,VALID,23.5673,VALID,58,VALID,0,
2011-09-24, 02:29:04,VALID,1003.44,VALID,0,INVALID,163.777,VALID,0,VALID,23.5478,VALID,58,VALID,0,
2011-09-24, 02:30:04,VALID,1003.44,VALID,0,INVALID,163.8,VALID,0,VALID,23.5478,VALID,58,VALID,0,
2011-09-24, 02:31:04,VALID,1003.45,VALID,0,INVALID,163.784,VALID,0,VALID,23.5478,VALID,58,VALID,0,
2011-09-24, 02:32:04,VALID,1003.42,VALID,0,INVALID,163.792,VALID,0,VALID,23.5478,VALID,58,VALID,0,
2011-09-24, 02:33:04,VALID,1003.43,VALID,0,INVALID,163.762,VALID,0,VALID,23.5673,VALID,58,VALID,0,
2011-09-24, 02:34:04,VALID,1003.43,VALID,0,INVALID,163.784,VALID,0,VALID,23.6257,VALID,98,VALID,0,
2011-09-24, 02:35:04,VALID,1003.44,VALID,0,INVALID,163.792,VALID,0,VALID,23.6646,VALID,98,VALID,0,
2011-09-24, 02:36:04,VALID,1003.42,VALID,0,INVALID,163.769,VALID,0,VALID,23.7035,VALID,98,VALID,0,
2011-09-24, 02:37:04,VALID,1003.45,VALID,0,INVALID,163.769,VALID,0,VALID,23.723,VALID,98,VALID,0,
2011-09-24, 02:38:04,VALID,1003.44,VALID,0,INVALID,163.762,VALID,0,VALID,23.7619,VALID,98,VALID,0,
2011-09-24, 02:39:04,VALID,1003.46,VALID,0,INVALID,163.777,VALID,0,VALID,23.7796,VALID,98,VALID,0,
2011-09-24, 02:40:04,VALID,1003.48,VALID,0,INVALID,163.777,VALID,0,VALID,23.8203,VALID,98,VALID,0,
2011-09-24, 02:41:04,VALID,1003.47,VALID,0,INVALID,163.8,VALID,0,VALID,23.8185,VALID,98,VALID,0,
2011-09-24, 02:42:04,VALID,1003.46,VALID,0,INVALID,163.777,VALID,0,VALID,23.8398,VALID,98,VALID,0,
2011-09-24, 02:43:04,VALID,1003.47,VALID,0,INVALID,163.746,VALID,0,VALID,23.8009,VALID,98,VALID,0,
2011-09-24, 02:44:04,VALID,1003.45,VALID,0,INVALID,163.746,VALID,0,VALID,23.7991,VALID,98,VALID,0,
2011-09-24, 02:45:04,VALID,1003.42,VALID,0,INVALID,163.8,VALID,0,VALID,23.8009,VALID,98,VALID,0,
2011-09-24, 02:46:04,VALID,1003.41,VALID,0,INVALID,163.769,VALID,0,VALID,23.7601,VALID,98,VALID,0,
2011-09-24, 02:47:04,VALID,1003.41,VALID,0,INVALID,163.762,VALID,0,VALID,23.7407,VALID,98,VALID,0,
2011-09-24, 02:48:04,VALID,1003.4,VALID,0,INVALID,163.777,VALID,0,VALID,23.7619,VALID,98,VALID,0,
2011-09-24, 02:49:04,VALID,1003.39,VALID,0,INVALID,163.792,VALID,0,VALID,23.7425,VALID,98,VALID,0,
2011-09-24, 02:50:04,VALID,1003.41,VALID,0,INVALID,163.746,VALID,0,VALID,23.723,VALID,98,VALID,0,
2011-09-24, 02:51:04,VALID,1003.41,VALID,0,INVALID,163.777,VALID,0,VALID,23.7212,VALID,98,VALID,0,
2011-09-24, 02:52:04,VALID,1003.4,VALID,0,INVALID,163.762,VALID,0,VALID,23.7017,VALID,98,VALID,0,
2011-09-24, 02:53:04,VALID,1003.37,VALID,0,INVALID,163.777,VALID,0,VALID,23.7035,VALID,98,VALID,0,
2011-09-24, 02:54:04,VALID,1003.36,VALID,0,INVALID,163.769,VALID,0,VALID,23.7035,VALID,98,VALID,0,
2011-09-24, 02:55:04,VALID,1003.34,VALID,0,INVALID,163.784,VALID,0,VALID,23.7035,VALID,98,VALID,0,
2011-09-24, 02:56:04,VALID,1003.31,VALID,0,INVALID,163.792,VALID,0,VALID,23.723,VALID,98,VALID,0,
2011-09-24, 02:57:04,VALID,1003.31,VALID,0,INVALID,163.792,VALID,0,VALID,23.7017,VALID,98,VALID,0,
2011-09-24, 02:58:04,VALID,1003.3,VALID,0,INVALID,163.769,VALID,0,VALID,23.723,VALID,98,VALID,0,
2011-09-24, 02:59:04,VALID,1003.29,VALID,0,INVALID,163.746,VALID,0,VALID,23.723,VALID,98,VALID,0,
2011-09-24, 03:00:04,VALID,1003.31,VALID,0,INVALID,163.769,VALID,0,VALID,23.723,VALID,98,VALID,0,
2011-09-24, 03:01:04,VALID,1003.29,VALID,0,INVALID,163.777,VALID,0,VALID,23.7,VALID,98,VALID,0,
2011-09-24, 03:02:04,VALID,1003.32,VALID,0,INVALID,163.762,VALID,0,VALID,23.7194,VALID,98,VALID,0,
2011-09-24, 03:03:04,VALID,1003.31,VALID,0,INVALID,163.777,VALID,0,VALID,23.7194,VALID,98,VALID,0,
2011-09-24, 03:04:04,VALID,1003.33,VALID,0,INVALID,163.777,VALID,0,VALID,23.7407,VALID,98,VALID,0,
2011-09-24, 03:05:04,VALID,1003.33,VALID,0,INVALID,163.754,VALID,0,VALID,23.7212,VALID,98,VALID,0,
2011-09-24, 03:06:04,VALID,1003.32,VALID,0,INVALID,163.777,VALID,0,VALID,23.7017,VALID,98,VALID,0,
2011-09-24, 03:07:04,VALID,1003.32,VALID,0,INVALID,163.792,VALID,0,VALID,23.7017,VALID,74,VALID,0,
2011-09-24, 03:08:04,VALID,1003.31,VALID,0,INVALID,163.762,VALID,0,VALID,23.7017,VALID,53,VALID,0,
2011-09-24, 03:09:04,VALID,1003.32,VALID,0,INVALID,163.754,VALID,0,VALID,23.6805,VALID,49,VALID,0,
2011-09-24, 03:10:04,VALID,1003.32,VALID,0,INVALID,163.777,VALID,0,VALID,23.6628,VALID,44,VALID,0,
2011-09-24, 03:11:04,VALID,1003.31,VALID,0,INVALID,163.746,VALID,0,VALID,23.6628,VALID,44,VALID,0,
2011-09-24, 03:12:04,VALID,1003.33,VALID,0,INVALID,163.792,VALID,0,VALID,23.6416,VALID,44,VALID,0,
2011-09-24, 03:13:04,VALID,1003.31,VALID,0,INVALID,163.8,VALID,0,VALID,23.6434,VALID,44,VALID,0,
2011-09-24, 03:14:04,VALID,1003.32,VALID,0,INVALID,163.777,VALID,0.100563,VALID,23.6221,VALID,44,VALID,0,
2011-09-24, 03:15:04,VALID,1003.31,VALID,0,INVALID,163.8,VALID,0,VALID,23.6239,VALID,44,VALID,0,
2011-09-24, 03:16:04,VALID,1003.29,VALID,0,INVALID,163.784,VALID,0.100563,VALID,23.6239,VALID,44,VALID,0,
2011-09-24, 03:17:04,VALID,1003.29,VALID,0,INVALID,163.777,VALID,0.100563,VALID,23.6239,VALID,44,VALID,0,
2011-09-24, 03:18:04,VALID,1003.3,VALID,0,INVALID,163.769,VALID,0,VALID,23.6044,VALID,44,VALID,0,
2011-09-24, 03:19:04,VALID,1003.26,VALID,0,INVALID,163.777,VALID,0.100563,VALID,23.5637,VALID,35,VALID,0,
2011-09-24, 03:20:04,VALID,1003.27,VALID,0,INVALID,163.777,VALID,0,VALID,23.585,VALID,33,VALID,0,
2011-09-24, 03:21:04,VALID,1003.28,VALID,0,INVALID,163.784,VALID,0,VALID,23.585,VALID,33,VALID,0,
2011-09-24, 03:22:04,VALID,1003.24,VALID,0,INVALID,163.8,VALID,0.100563,VALID,23.5832,VALID,33,VALID,0,
2011-09-24, 03:23:04,VALID,1003.24,VALID,0,INVALID,163.784,VALID,0,VALID,23.6434,VALID,18,VALID,0,
2011-09-24, 03:24:04,VALID,1003.26,VALID,0,INVALID,163.792,VALID,0.100563,VALID,23.6203,VALID,19,VALID,0,
2011-09-24, 03:25:04,VALID,1003.24,VALID,0,INVALID,163.739,VALID,0.100563,VALID,23.7017,VALID,19,VALID,0,
2011-09-24, 03:26:04,VALID,1003.26,VALID,0,INVALID,163.792,VALID,0.100563,VALID,23.6805,VALID,19,VALID,0,
2011-09-24, 03:27:04,VALID,1003.25,VALID,0,INVALID,163.777,VALID,0.100563,VALID,23.723,VALID,19,VALID,0,
2011-09-24, 03:28:04,VALID,1003.21,VALID,0,INVALID,163.769,VALID,0,VALID,23.7601,VALID,19,VALID,0,
2011-09-24, 03:29:04,VALID,1003.22,VALID,0,INVALID,163.754,VALID,0,VALID,23.7601,VALID,19,VALID,0,
2011-09-24, 03:30:04,VALID,1003.2,VALID,0,INVALID,163.777,VALID,0.100563,VALID,23.7796,VALID,19,VALID,0,
2011-09-24, 03:31:04,VALID,1003.2,VALID,0,INVALID,163.792,VALID,0,VALID,23.7407,VALID,19,VALID,0,
2011-09-24, 03:32:04,VALID,1003.21,VALID,0,INVALID,163.762,VALID,0,VALID,23.7407,VALID,52,VALID,0,
2011-09-24, 03:33:04,VALID,1003.19,VALID,0,INVALID,163.762,VALID,0.100563,VALID,23.7212,VALID,74,VALID,0,
2011-09-24, 03:34:04,VALID,1003.18,VALID,0,INVALID,163.762,VALID,0.100563,VALID,23.7017,VALID,74,VALID,0,
2011-09-24, 03:35:04,VALID,1003.2,VALID,0,INVALID,163.769,VALID,0.100563,VALID,23.661,VALID,74,VALID,0,
2011-09-24, 03:36:04,VALID,1003.16,VALID,0,INVALID,163.762,VALID,0,VALID,23.6628,VALID,74,VALID,0,
2011-09-24, 03:37:04,VALID,1003.19,VALID,0,INVALID,163.754,VALID,0,VALID,23.6434,VALID,74,VALID,0,
2011-09-24, 03:38:04,VALID,1003.21,VALID,0,INVALID,163.777,VALID,0,VALID,23.6221,VALID,74,VALID,0,
2011-09-24, 03:39:04,VALID,1003.21,VALID,0,INVALID,163.784,VALID,0,VALID,23.6434,VALID,44,VALID,0,
2011-09-24, 03:40:04,VALID,1003.19,VALID,0,INVALID,163.777,VALID,0.100563,VALID,23.6239,VALID,39,VALID,0,
2011-09-24, 03:41:04,VALID,1003.19,VALID,0,INVALID,163.8,VALID,0.100563,VALID,23.6221,VALID,38,VALID,0,
2011-09-24, 03:42:04,VALID,1003.17,VALID,0,INVALID,163.777,VALID,0.100563,VALID,23.6434,VALID,38,VALID,0,
2011-09-24, 03:43:04,VALID,1003.16,VALID,0,INVALID,163.777,VALID,0.100563,VALID,23.6026,VALID,38,VALID,0,
2011-09-24, 03:44:04,VALID,1003.15,VALID,0,INVALID,163.8,VALID,0.100563,VALID,23.6026,VALID,38,VALID,0,
2011-09-24, 03:45:04,VALID,1003.17,VALID,0,INVALID,163.769,VALID,0.100563,VALID,23.6026,VALID,38,VALID,0,
2011-09-24, 03:46:04,VALID,1003.23,VALID,0,INVALID,163.792,VALID,0.100563,VALID,23.6239,VALID,38,VALID,0,
2011-09-24, 03:47:04,VALID,1003.22,VALID,0,INVALID,163.777,VALID,0.100563,VALID,23.6239,VALID,48,VALID,0,
2011-09-24, 03:48:04,VALID,1003.24,VALID,0,INVALID,163.792,VALID,0.100563,VALID,23.6257,VALID,87,VALID,0,
2011-09-24, 03:49:04,VALID,1003.27,VALID,0,INVALID,163.777,VALID,0.100563,VALID,23.5832,VALID,98,VALID,0,
2011-09-24, 03:50:04,VALID,1003.31,VALID,0,INVALID,163.777,VALID,0,VALID,23.585,VALID,98,VALID,0,
2011-09-24, 03:51:04,VALID,1003.31,VALID,0,INVALID,163.8,VALID,0.100563,VALID,23.585,VALID,98,VALID,0,
2011-09-24, 03:52:04,VALID,1003.34,VALID,0,INVALID,163.777,VALID,0.100563,VALID,23.5637,VALID,98,VALID,0,